• Em Portugal
  • Lista de países
  • Para 7 dias
  • Temperatura da água
  • Mapas de satélite
  • Mapa do tempo
  • Widgets de tempo
  • user-avatar
    Iniciar Sessão

    Previsão horária em Vidin

    Hoje, 20 Setembro, Quinta-feira

    Tempo Temperatura Precipitação Vento Pressão Humidade
    00:00 +19°C° 0 mm 1 m/s 763 mmHg 49%
    01:00 +18°C° 0 mm 1 m/s 763 mmHg 51%
    02:00 +18°C° 0 mm 1 m/s 763 mmHg 56%
    03:00 +18°C° 0 mm 1 m/s 763 mmHg 58%
    04:00 +16°C° 0 mm 1 m/s 763 mmHg 60%
    05:00 +16°C° 0 mm 1 m/s 763 mmHg 62%
    06:00 +18°C° 0 mm 1 m/s 763 mmHg 59%
    07:00 +19°C° 0 mm 1 m/s 763 mmHg 56%
    08:00 +20°C° 0 mm 1 m/s 763 mmHg 54%
    09:00 +22°C° 0 mm 1 m/s 763 mmHg 48%
    10:00 +24°C° 0 mm 2 m/s 763 mmHg 43%
    11:00 +26°C° 0 mm 2 m/s 762 mmHg 37%
    12:00 +27°C° 0 mm 2 m/s 762 mmHg 34%
    13:00 +29°C° 0 mm 2 m/s 762 mmHg 31%
    14:00 +30°C° 0 mm 3 m/s 761 mmHg 27%
    15:00 +30°C° 0 mm 3 m/s 761 mmHg 27%
    16:00 +30°C° 0 mm 3 m/s 761 mmHg 26%
    17:00 +29°C° 0 mm 2 m/s 761 mmHg 26%
    18:00 +27°C° 0 mm 2 m/s 761 mmHg 30%
    19:00 +25°C° 0 mm 2 m/s 761 mmHg 33%
    20:00 +22°C° 0 mm 1 m/s 761 mmHg 37%
    21:00 +22°C° 0 mm 1 m/s 761 mmHg 37%
    22:00 +21°C° 0 mm 1 m/s 761 mmHg 38%
    23:00 +21°C° 0 mm 1 m/s 761 mmHg 38%

    Amanhã, 21 Setembro, Sexta-feira

    Tempo Temperatura Precipitação Vento Pressão Humidade
    00:00 +21°C° 0 mm 1 m/s 761 mmHg 39%
    01:00 +20°C° 0 mm 1 m/s 761 mmHg 40%
    02:00 +19°C° 0 mm 2 m/s 761 mmHg 41%
    03:00 +19°C° 0 mm 1 m/s 761 mmHg 43%
    04:00 +19°C° 0 mm 1 m/s 761 mmHg 45%
    05:00 +18°C° 0 mm 1 m/s 761 mmHg 47%
    06:00 +19°C° 0 mm 1 m/s 761 mmHg 46%
    07:00 +20°C° 0 mm 1 m/s 761 mmHg 45%
    08:00 +21°C° 0 mm 1 m/s 762 mmHg 44%
    09:00 +23°C° 0 mm 2 m/s 761 mmHg 40%
    10:00 +25°C° 0 mm 2 m/s 761 mmHg 37%
    11:00 +27°C° 0 mm 2 m/s 761 mmHg 34%
    12:00 +28°C° 0 mm 2 m/s 761 mmHg 32%
    13:00 +29°C° 0 mm 3 m/s 760 mmHg 30%
    14:00 +30°C° 0 mm 3 m/s 760 mmHg 28%
    15:00 +30°C° 0 mm 3 m/s 760 mmHg 28%
    16:00 +30°C° 0 mm 3 m/s 759 mmHg 28%
    17:00 +30°C° 0 mm 3 m/s 759 mmHg 28%
    18:00 +28°C° 0 mm 2 m/s 759 mmHg 33%
    19:00 +25°C° 0 mm 2 m/s 759 mmHg 37%
    20:00 +23°C° 0 mm 2 m/s 760 mmHg 41%
    21:00 +21°C° 0 mm 2 m/s 760 mmHg 43%
    22:00 +21°C° 0 mm 2 m/s 760 mmHg 45%
    23:00 +21°C° 0 mm 1 m/s 760 mmHg 46%

    Depois de amanhã, 22 Setembro, Sábado

    Tempo Temperatura Precipitação Vento Pressão Humidade
    00:00 +19°C° 0 mm 2 m/s 760 mmHg 48%
    01:00 +19°C° 0 mm 2 m/s 760 mmHg 50%
    02:00 +18°C° 0 mm 2 m/s 760 mmHg 52%
    03:00 +18°C° 0 mm 2 m/s 760 mmHg 53%
    04:00 +19°C° 0 mm 1 m/s 760 mmHg 54%
    05:00 +18°C° 0 mm 1 m/s 760 mmHg 55%
    06:00 +19°C° 0 mm 1 m/s 760 mmHg 53%
    07:00 +20°C° 0 mm 1 m/s 760 mmHg 50%
    08:00 +21°C° 0 mm 1 m/s 760 mmHg 47%
    09:00 +24°C° 0 mm 1 m/s 760 mmHg 42%
    10:00 +26°C° 0 mm 1 m/s 760 mmHg 37%
    11:00 +29°C° 0 mm 1 m/s 760 mmHg 31%
    12:00 +30°C° 0 mm 1 m/s 760 mmHg 30%
    13:00 +31°C° 0 mm 1 m/s 760 mmHg 28%
    14:00 +32°C° 0 mm 2 m/s 759 mmHg 26%
    15:00 +32°C° 0 mm 2 m/s 759 mmHg 28%
    16:00 +32°C° 0 mm 2 m/s 759 mmHg 30%
    17:00 +33°C° 0 mm 3 m/s 759 mmHg 32%
    18:00 +29°C° 0 mm 3 m/s 760 mmHg 39%
    19:00 +27°C° 0 mm 4 m/s 760 mmHg 46%
    20:00 +25°C° 0 mm 4 m/s 761 mmHg 53%
    21:00 +25°C° 0 mm 4 m/s 761 mmHg 54%
    22:00 +23°C° 0 mm 5 m/s 762 mmHg 56%
    23:00 +22°C° 0 mm 5 m/s 762 mmHg 58%

    23 Setembro, Domingo

    Tempo Temperatura Precipitação Vento Pressão Humidade
    00:00 +21°C° 0 mm 5 m/s 763 mmHg 58%
    01:00 +20°C° 0 mm 5 m/s 763 mmHg 59%
    02:00 +20°C° 0 mm 5 m/s 763 mmHg 59%
    03:00 +19°C° 0 mm 5 m/s 763 mmHg 59%
    04:00 +19°C° 0 mm 5 m/s 763 mmHg 59%
    05:00 +18°C° 0 mm 4 m/s 763 mmHg 59%
    06:00 +18°C° 0 mm 4 m/s 764 mmHg 56%
    07:00 +19°C° 0 mm 4 m/s 764 mmHg 54%
    08:00 +19°C° 0 mm 4 m/s 764 mmHg 52%
    09:00 +22°C° 0 mm 4 m/s 764 mmHg 44%
    10:00 +25°C° 0 mm 3 m/s 764 mmHg 37%
    11:00 +27°C° 0 mm 3 m/s 764 mmHg 30%
    12:00 +28°C° 0 mm 3 m/s 763 mmHg 28%
    13:00 +29°C° 0 mm 2 m/s 763 mmHg 27%
    14:00 +30°C° 0 mm 2 m/s 762 mmHg 25%
    15:00 +30°C° 0 mm 2 m/s 762 mmHg 26%
    16:00 +30°C° 0 mm 2 m/s 761 mmHg 27%
    17:00 +30°C° 0 mm 1 m/s 761 mmHg 29%
    18:00 +28°C° 0 mm 1 m/s 761 mmHg 32%
    19:00 +26°C° 0 mm 1 m/s 761 mmHg 36%
    20:00 +24°C° 0 mm 1 m/s 761 mmHg 40%
    21:00 +23°C° 0 mm 1 m/s 761 mmHg 42%
    22:00 +23°C° 0 mm 1 m/s 761 mmHg 43%
    23:00 +22°C° 0 mm 1 m/s 760 mmHg 45%

    24 Setembro, Segunda-feira

    Tempo Temperatura Precipitação Vento Pressão Humidade
    00:00 +22°C° 0 mm 1 m/s 760 mmHg 46%
    01:00 +21°C° 0 mm 1 m/s 759 mmHg 47%
    02:00 +21°C° 0 mm 1 m/s 759 mmHg 49%
    03:00 +20°C° 0 mm 2 m/s 759 mmHg 50%
    04:00 +19°C° 0 mm 2 m/s 758 mmHg 52%
    05:00 +19°C° 0 mm 2 m/s 758 mmHg 54%
    06:00 +19°C° 0 mm 2 m/s 758 mmHg 52%
    07:00 +20°C° 0 mm 2 m/s 758 mmHg 51%
    08:00 +21°C° 0 mm 2 m/s 758 mmHg 49%
    09:00 +24°C° 0 mm 2 m/s 758 mmHg 43%
    10:00 +27°C° 0 mm 2 m/s 758 mmHg 38%
    11:00 +29°C° 0 mm 3 m/s 758 mmHg 32%
    12:00 +28°C° 0 mm 5 m/s 758 mmHg 36%
    13:00 +27°C° 0 mm 7 m/s 759 mmHg 39%
    14:00 +26°C° 0 mm 9 m/s 759 mmHg 43%
    15:00 +24°C° 0 mm 9 m/s 760 mmHg 43%
    16:00 +23°C° 0 mm 9 m/s 761 mmHg 43%
    17:00 +22°C° 0 mm 8 m/s 762 mmHg 43%
    18:00 +20°C° 0 mm 8 m/s 762 mmHg 46%
    19:00 +17°C° 0 mm 7 m/s 763 mmHg 49%
    20:00 +15°C° 0 mm 6 m/s 764 mmHg 52%
    21:00 +15°C° 0 mm 6 m/s 765 mmHg 52%
    22:00 +15°C° 0 mm 6 m/s 765 mmHg 52%
    23:00 +14°C° 0 mm 5 m/s 766 mmHg 51%

    25 Setembro, Terça-feira

    Tempo Temperatura Precipitação Vento Pressão Humidade
    00:00 +14°C° 0 mm 5 m/s 766 mmHg 51%
    01:00 +14°C° 0 mm 5 m/s 766 mmHg 50%
    02:00 +14°C° 0 mm 5 m/s 766 mmHg 49%
    03:00 +14°C° 0 mm 5 m/s 766 mmHg 49%
    04:00 +14°C° 0 mm 4 m/s 766 mmHg 49%
    05:00 +14°C° 0 mm 4 m/s 766 mmHg 48%
    06:00 +14°C° 0 mm 4 m/s 766 mmHg 48%
    07:00 +14°C° 0 mm 4 m/s 766 mmHg 47%
    08:00 +14°C° 0 mm 4 m/s 767 mmHg 46%
    09:00 +14°C° 0.1 mm 4 m/s 767 mmHg 48%
    10:00 +14°C° 0.1 mm 4 m/s 767 mmHg 50%
    11:00 +14°C° 0.1 mm 4 m/s 767 mmHg 51%
    12:00 +14°C° 0.2 mm 4 m/s 767 mmHg 53%
    13:00 +14°C° 0.2 mm 4 m/s 767 mmHg 54%
    14:00 +14°C° 0.2 mm 4 m/s 767 mmHg 56%
    15:00 +14°C° 0 mm 4 m/s 767 mmHg 52%
    16:00 +15°C° 0 mm 4 m/s 767 mmHg 49%
    17:00 +17°C° 0 mm 4 m/s 766 mmHg 45%
    18:00 +14°C° 0 mm 4 m/s 767 mmHg 48%
    19:00 +13°C° 0 mm 3 m/s 767 mmHg 52%
    20:00 +12°C° 0 mm 3 m/s 767 mmHg 55%
    21:00 +11°C° 0 mm 3 m/s 767 mmHg 57%
    22:00 +11°C° 0 mm 3 m/s 768 mmHg 58%
    23:00 +12°C° 0 mm 2 m/s 768 mmHg 59%
    Mostrar mais